Regional Weather Roundup
Issued by NWS Green Bay, WI

Home | Current Version | Previous Version | Text Only | Print | Product List | Glossary On
Versions: 1 2 3 4 5 6 7 8 9 10 11 12 13 14 15 16 17 18 19 20 21 22 23 24 25 26 27 28 29 30 31 32 33 34 35 36 37 38 39 40 41 42 43 44 45 46 47 48 49 50
000
ASUS43 KGRB 260600
RWRGRB

NORTH-CENTRAL AND NORTHEAST WISCONSIN REGIONAL WEATHER ROUNDUP
NATIONAL WEATHER SERVICE GREEN BAY WI
100 AM CDT FRI AUG 26 2016

WIZ005-009-010>012-018-019-260700-
NORTH CENTRAL WISCONSIN

CITY           SKY/WX    TMP DP  RH WIND       PRES   REMARKS
IRONWOOD       FAIR      55  53  93 W8        30.06R
MANITOWISH WTR NOT AVBL
ARBOR VITAE    NOT AVBL
EAGLE RIVER    NOT AVBL
LAND O LAKES   NOT AVBL
RHINELANDER    FAIR      53  52  96 W6        30.09R
PHILLIPS       FAIR      55  53  94 CALM      30.09R
ANTIGO         NOT AVBL
TOMAHAWK       NOT AVBL
MERRILL        NOT AVBL
$$

WIZ013-073-260700-
NORTHEAST WISCONSIN

CITY           SKY/WX    TMP DP  RH WIND       PRES   REMARKS
IRON MOUNTAIN  FAIR      59  51  75 CALM      30.04R
MARINETTE      FAIR     N/A N/A N/A VRB3      30.05R
$$

WIZ017-030-035>037-045-260700-
CENTRAL WISCONSIN

CITY           SKY/WX    TMP DP  RH WIND       PRES   REMARKS
MEDFORD        NOT AVBL
WAUSAU         FAIR      59  55  87 NW7       30.08R
MOSINEE        NOT AVBL
MARSHFIELD     FAIR      57  53  86 W5        30.10S
WISC RAPIDS    FAIR      59  56  89 NW5       30.12R
STEVENS POINT  NOT AVBL
WAUPACA        NOT AVBL
SHAWANO        NOT AVBL
CLINTONVILLE   FAIR      61  54  77 W3        30.08R
WAUTOMA        FAIR      61  56  83 SW3       30.10R
$$

WIZ038-039-048-051-260700-
FOX VALLEY

CITY           SKY/WX    TMP DP  RH WIND       PRES   REMARKS
NWS GREEN BAY  FAIR      60  59  96 W8        30.07R
APPLETON       NOT AVBL
OSHKOSH        FAIR      63  58  83 W3        30.08R
FOND DU LAC    FAIR      63  59  87 CALM      30.09R
$$

WIZ022-050-052-260700-
EAST CENTRAL WISCONSIN

CITY           SKY/WX    TMP DP  RH WIND       PRES   REMARKS
EPHRAIM        NOT AVBL
WASHINGTON ISL NOT AVBL
STURGEON BAY   FAIR      66  58  75 W8        30.06R
MANITOWOC      NOT AVBL
SHEBOYGAN      FAIR      65  60  84 W5        30.07R
$$

LMZ563-521-522-541>543-260700-
LAKESHORE

STATION/POSITION TIME  TEMP    WIND        PRES    VSBY  WAVE
                       AIR SEA DIR/SP/G                  HT/PER
                 (UTC) (F)     (DEG/KT/KT) (MB)    (MI)  (FT/S)
SHEBOYGAN LKSHOR 0500   68     250/  5/  6 1017.1R
KEWAUNEE LKSHORE 0500   66     300/  4/  6 1016.7R
NORTHPORT PIER   0500   70     290/  8/ 11 1016.3
N MID LAKE BUOY  0450   70 71  290/ 16/ 19 1014.8R         2/ 4
CHAMBERS ISLAND  0500   67     240/  4/  7 1016.6R
MENOMINEE LKSHOR 0500   67     260/  5/  9 1016.1R
$$




USA.gov is the U.S. government's official web portal to all federal, state and local government web resources and services.